Time,TemperatureF,DewpointF,PressureIn,WindDirection,WindDirectionDegrees,WindSpeedMPH,WindSpeedGustMPH,Humidity,HourlyPrecipIn,Conditions,Clouds,dailyrainin,SoftwareType,DateUTC
2013-02-05 00:00:00,51.0,38.0,30.05,SW,220,8.0,10.0,60,-99.99,,,-99.99,,2013-02-05 05:00:00,
2013-02-05 00:21:00,51.0,38.0,30.05,SW,220,8.0,10.0,60,-99.99,,,-99.99,,2013-02-05 05:21:00,
2013-02-05 00:31:00,51.0,38.0,30.05,SW,220,8.0,10.0,60,-99.99,,,-99.99,,2013-02-05 05:31:00,
2013-02-05 00:41:00,51.0,38.0,30.05,SW,220,8.0,10.0,60,-99.99,,,-99.99,,2013-02-05 05:41:00,
2013-02-05 00:52:00,51.0,38.0,30.05,SW,220,8.0,10.0,60,-99.99,,,-99.99,,2013-02-05 05:52:00,
2013-02-05 01:00:00,52.0,41.0,30.04,WSW,240,7.0,8.0,66,-99.99,,,-99.99,,2013-02-05 06:00:00,
2013-02-05 01:21:00,52.0,41.0,30.04,WSW,240,7.0,8.0,66,-99.99,,,-99.99,,2013-02-05 06:21:00,
2013-02-05 01:31:00,52.0,41.0,30.04,WSW,240,7.0,8.0,66,-99.99,,,-99.99,,2013-02-05 06:31:00,
2013-02-05 01:41:00,52.0,41.0,30.04,WSW,240,7.0,8.0,66,-99.99,,,-99.99,,2013-02-05 06:41:00,
2013-02-05 01:51:00,52.0,41.0,30.04,WSW,240,7.0,8.0,66,-99.99,,,-99.99,,2013-02-05 06:51:00,
2013-02-05 02:00:00,52.0,44.0,30.03,West,280,6.0,7.0,73,-99.99,,,-99.99,,2013-02-05 07:00:00,
2013-02-05 02:22:00,52.0,44.0,30.03,West,280,6.0,7.0,73,-99.99,,,-99.99,,2013-02-05 07:22:00,
2013-02-05 02:31:00,52.0,44.0,30.03,West,280,6.0,7.0,73,-99.99,,,-99.99,,2013-02-05 07:31:00,
2013-02-05 02:41:00,52.0,44.0,30.03,West,280,6.0,7.0,73,-99.99,,,-99.99,,2013-02-05 07:41:00,
2013-02-05 02:51:00,52.0,44.0,30.03,West,280,6.0,7.0,73,-99.99,,,-99.99,,2013-02-05 07:51:00,
2013-02-05 03:00:00,47.0,40.0,30.01,NNW,330,7.0,7.0,74,-99.99,,,-99.99,,2013-02-05 08:00:00,
2013-02-05 03:21:00,47.0,40.0,30.01,NNW,330,7.0,7.0,74,-99.99,,,-99.99,,2013-02-05 08:21:00,
2013-02-05 03:31:00,47.0,40.0,30.01,NNW,330,7.0,7.0,74,-99.99,,,-99.99,,2013-02-05 08:31:00,
2013-02-05 03:41:00,47.0,40.0,30.01,NNW,330,7.0,7.0,74,-99.99,,,-99.99,,2013-02-05 08:41:00,
2013-02-05 03:52:00,47.0,40.0,30.01,NNW,330,7.0,7.0,74,-99.99,,,-99.99,,2013-02-05 08:52:00,
2013-02-05 04:00:00,48.0,38.0,29.99,WNW,290,3.0,5.0,69,-99.99,,,-99.99,,2013-02-05 09:00:00,
2013-02-05 04:21:00,48.0,38.0,29.99,WNW,290,3.0,5.0,69,-99.99,,,-99.99,,2013-02-05 09:21:00,
2013-02-05 04:31:00,48.0,38.0,29.99,WNW,290,3.0,5.0,69,-99.99,,,-99.99,,2013-02-05 09:31:00,
2013-02-05 04:41:00,48.0,38.0,29.99,WNW,290,3.0,5.0,69,-99.99,,,-99.99,,2013-02-05 09:41:00,
2013-02-05 04:51:00,48.0,38.0,29.99,WNW,290,3.0,5.0,69,-99.99,,,-99.99,,2013-02-05 09:51:00,
2013-02-05 05:00:00,48.0,40.0,29.98,NW,320,3.0,5.0,75,-99.99,,,-99.99,,2013-02-05 10:00:00,
2013-02-05 05:21:00,48.0,40.0,29.98,NW,320,3.0,5.0,75,-99.99,,,-99.99,,2013-02-05 10:21:00,
2013-02-05 05:31:00,48.0,40.0,29.98,NW,320,3.0,5.0,75,-99.99,,,-99.99,,2013-02-05 10:31:00,
2013-02-05 05:42:00,48.0,40.0,29.98,NW,320,3.0,5.0,75,-99.99,,,-99.99,,2013-02-05 10:42:00,
2013-02-05 05:51:00,48.0,40.0,29.98,NW,320,3.0,5.0,75,-99.99,,,-99.99,,2013-02-05 10:51:00,
2013-02-05 06:00:00,49.0,40.0,29.98,West,280,5.0,5.0,70,-99.99,,,-99.99,,2013-02-05 11:00:00,
2013-02-05 06:21:00,49.0,40.0,29.98,West,280,5.0,5.0,70,-99.99,,,-99.99,,2013-02-05 11:21:00,
2013-02-05 06:31:00,49.0,40.0,29.98,West,280,5.0,5.0,70,-99.99,,,-99.99,,2013-02-05 11:31:00,
2013-02-05 06:41:00,49.0,40.0,29.98,West,280,5.0,5.0,70,-99.99,,,-99.99,,2013-02-05 11:41:00,
2013-02-05 06:52:00,49.0,40.0,29.98,West,280,5.0,5.0,70,-99.99,,,-99.99,,2013-02-05 11:52:00,
2013-02-05 07:00:00,49.0,42.0,30.00,West,280,6.0,6.0,75,-99.99,,,-99.99,,2013-02-05 12:00:00,
2013-02-05 07:21:00,49.0,42.0,30.00,West,280,6.0,6.0,75,-99.99,,,-99.99,,2013-02-05 12:21:00,
2013-02-05 07:31:00,49.0,42.0,30.00,West,280,6.0,6.0,75,-99.99,,,-99.99,,2013-02-05 12:31:00,
2013-02-05 07:41:00,49.0,42.0,30.00,West,280,6.0,6.0,75,-99.99,,,-99.99,,2013-02-05 12:41:00,
2013-02-05 07:51:00,49.0,42.0,30.00,West,280,6.0,6.0,75,-99.99,,,-99.99,,2013-02-05 12:51:00,
2013-02-05 08:00:00,50.0,42.0,30.02,West,260,7.0,9.0,72,-99.99,,,-99.99,,2013-02-05 13:00:00,
2013-02-05 08:21:00,50.0,42.0,30.02,West,260,7.0,9.0,72,-99.99,,,-99.99,,2013-02-05 13:21:00,
2013-02-05 08:31:00,50.0,42.0,30.02,West,260,7.0,9.0,72,-99.99,,,-99.99,,2013-02-05 13:31:00,
2013-02-05 08:41:00,50.0,42.0,30.02,West,260,7.0,9.0,72,-99.99,,,-99.99,,2013-02-05 13:41:00,
2013-02-05 08:51:00,50.0,42.0,30.02,West,260,7.0,9.0,72,-99.99,,,-99.99,,2013-02-05 13:51:00,
2013-02-05 09:00:00,53.0,43.0,30.03,WSW,250,13.0,15.0,67,-99.99,,,-99.99,,2013-02-05 14:00:00,
2013-02-05 09:21:00,53.0,43.0,30.03,WSW,250,13.0,15.0,67,-99.99,,,-99.99,,2013-02-05 14:21:00,
2013-02-05 09:31:00,53.0,43.0,30.03,WSW,250,13.0,15.0,67,-99.99,,,-99.99,,2013-02-05 14:31:00,
2013-02-05 09:41:00,53.0,43.0,30.03,WSW,250,13.0,15.0,67,-99.99,,,-99.99,,2013-02-05 14:41:00,
2013-02-05 09:52:00,53.0,43.0,30.03,WSW,250,13.0,15.0,67,-99.99,,,-99.99,,2013-02-05 14:52:00,
2013-02-05 10:00:00,52.0,40.0,30.04,West,260,17.0,22.0,62,-99.99,,,-99.99,,2013-02-05 15:00:00,
2013-02-05 10:21:00,52.0,40.0,30.04,West,260,17.0,22.0,62,-99.99,,,-99.99,,2013-02-05 15:21:00,
2013-02-05 10:32:00,52.0,40.0,30.04,West,260,17.0,22.0,62,-99.99,,,-99.99,,2013-02-05 15:32:00,
2013-02-05 10:41:00,52.0,40.0,30.04,West,260,17.0,22.0,62,-99.99,,,-99.99,,2013-02-05 15:41:00,
2013-02-05 10:51:00,52.0,40.0,30.04,West,260,17.0,22.0,62,-99.99,,,-99.99,,2013-02-05 15:51:00,
2013-02-05 11:00:00,55.0,38.0,30.03,West,260,16.0,18.0,53,-99.99,,,-99.99,,2013-02-05 16:00:00,
2013-02-05 11:21:00,55.0,38.0,30.03,West,260,16.0,18.0,53,-99.99,,,-99.99,,2013-02-05 16:21:00,
2013-02-05 11:32:00,55.0,38.0,30.03,West,260,16.0,18.0,53,-99.99,,,-99.99,,2013-02-05 16:32:00,
2013-02-05 11:41:00,55.0,38.0,30.03,West,260,16.0,18.0,53,-99.99,,,-99.99,,2013-02-05 16:41:00,
2013-02-05 11:51:00,55.0,38.0,30.03,West,260,16.0,18.0,53,-99.99,,,-99.99,,2013-02-05 16:51:00,
2013-02-05 12:00:00,55.0,38.0,30.01,WSW,250,17.0,22.0,52,-99.99,,,-99.99,,2013-02-05 17:00:00,
2013-02-05 12:21:00,55.0,38.0,30.01,WSW,250,17.0,22.0,52,-99.99,,,-99.99,,2013-02-05 17:21:00,
2013-02-05 12:32:00,55.0,38.0,30.01,WSW,250,17.0,22.0,52,-99.99,,,-99.99,,2013-02-05 17:32:00,
2013-02-05 12:41:00,55.0,38.0,30.01,WSW,250,17.0,22.0,52,-99.99,,,-99.99,,2013-02-05 17:41:00,
2013-02-05 12:52:00,55.0,38.0,30.01,WSW,250,17.0,22.0,52,-99.99,,,-99.99,,2013-02-05 17:52:00,
2013-02-05 13:00:00,55.0,39.0,29.96,SW,230,15.0,22.0,54,-99.99,,,-99.99,,2013-02-05 18:00:00,
2013-02-05 13:21:00,55.0,39.0,29.96,SW,230,15.0,22.0,54,-99.99,,,-99.99,,2013-02-05 18:21:00,
2013-02-05 13:31:00,55.0,39.0,29.96,SW,230,15.0,22.0,54,-99.99,,,-99.99,,2013-02-05 18:31:00,
2013-02-05 13:42:00,55.0,39.0,29.96,SW,230,15.0,22.0,54,-99.99,,,-99.99,,2013-02-05 18:42:00,
2013-02-05 13:51:00,55.0,39.0,29.96,SW,230,15.0,22.0,54,-99.99,,,-99.99,,2013-02-05 18:51:00,
2013-02-05 14:00:00,56.0,40.0,29.94,SW,230,13.0,18.0,53,-99.99,,,-99.99,,2013-02-05 19:00:00,
2013-02-05 14:21:00,56.0,40.0,29.94,SW,230,13.0,18.0,53,-99.99,,,-99.99,,2013-02-05 19:21:00,
2013-02-05 14:31:00,56.0,40.0,29.94,SW,230,13.0,18.0,53,-99.99,,,-99.99,,2013-02-05 19:31:00,
2013-02-05 14:42:00,56.0,40.0,29.94,SW,230,13.0,18.0,53,-99.99,,,-99.99,,2013-02-05 19:42:00,
2013-02-05 14:51:00,56.0,40.0,29.94,SW,230,13.0,18.0,53,-99.99,,,-99.99,,2013-02-05 19:51:00,
2013-02-05 15:00:00,57.0,43.0,29.93,SW,220,10.0,15.0,58,-99.99,,,-99.99,,2013-02-05 20:00:00,
2013-02-05 15:21:00,57.0,43.0,29.93,SW,220,10.0,15.0,58,-99.99,,,-99.99,,2013-02-05 20:21:00,
2013-02-05 15:31:00,57.0,43.0,29.93,SW,220,10.0,15.0,58,-99.99,,,-99.99,,2013-02-05 20:31:00,
2013-02-05 15:41:00,57.0,43.0,29.93,SW,220,10.0,15.0,58,-99.99,,,-99.99,,2013-02-05 20:41:00,
2013-02-05 15:52:00,57.0,43.0,29.93,SW,220,10.0,15.0,58,-99.99,,,-99.99,,2013-02-05 20:52:00,
2013-02-05 16:00:00,57.0,44.0,29.92,SW,220,11.0,16.0,60,-99.99,,,-99.99,,2013-02-05 21:00:00,
2013-02-05 16:21:00,57.0,44.0,29.92,SW,220,11.0,16.0,60,-99.99,,,-99.99,,2013-02-05 21:21:00,
2013-02-05 16:31:00,57.0,44.0,29.92,SW,220,11.0,16.0,60,-99.99,,,-99.99,,2013-02-05 21:31:00,
2013-02-05 16:41:00,57.0,44.0,29.92,SW,220,11.0,16.0,60,-99.99,,,-99.99,,2013-02-05 21:41:00,
2013-02-05 16:51:00,57.0,44.0,29.92,SW,220,11.0,16.0,60,-99.99,,,-99.99,,2013-02-05 21:51:00,
2013-02-05 17:00:00,56.0,44.0,29.91,SW,220,13.0,16.0,63,-99.99,,,-99.99,,2013-02-05 22:00:00,
2013-02-05 17:21:00,56.0,44.0,29.91,SW,220,13.0,16.0,63,-99.99,,,-99.99,,2013-02-05 22:21:00,
2013-02-05 17:31:00,56.0,44.0,29.91,SW,220,13.0,16.0,63,-99.99,,,-99.99,,2013-02-05 22:31:00,
2013-02-05 17:41:00,56.0,44.0,29.91,SW,220,13.0,16.0,63,-99.99,,,-99.99,,2013-02-05 22:41:00,
2013-02-05 17:51:00,56.0,44.0,29.91,SW,220,13.0,16.0,63,-99.99,,,-99.99,,2013-02-05 22:51:00,
2013-02-05 18:00:00,56.0,45.0,29.91,SW,220,11.0,15.0,68,-99.99,,,-99.99,,2013-02-05 23:00:00,
2013-02-05 18:21:00,56.0,45.0,29.91,SW,220,11.0,15.0,68,-99.99,,,-99.99,,2013-02-05 23:21:00,
2013-02-05 18:31:00,56.0,45.0,29.91,SW,220,11.0,15.0,68,-99.99,,,-99.99,,2013-02-05 23:31:00,
2013-02-05 18:41:00,56.0,45.0,29.91,SW,220,11.0,15.0,68,-99.99,,,-99.99,,2013-02-05 23:41:00,
2013-02-05 18:51:00,56.0,45.0,29.91,SW,220,11.0,15.0,68,-99.99,,,-99.99,,2013-02-05 23:51:00,
2013-02-05 19:00:00,56.0,45.0,29.93,WSW,240,11.0,16.0,66,-99.99,,,-99.99,,2013-02-06 00:00:00,
2013-02-05 19:21:00,56.0,45.0,29.93,WSW,240,11.0,16.0,66,-99.99,,,-99.99,,2013-02-06 00:21:00,
2013-02-05 19:31:00,56.0,45.0,29.93,WSW,240,11.0,16.0,66,-99.99,,,-99.99,,2013-02-06 00:31:00,
2013-02-05 19:41:00,56.0,45.0,29.93,WSW,240,11.0,16.0,66,-99.99,,,-99.99,,2013-02-06 00:41:00,
2013-02-05 19:51:00,56.0,45.0,29.93,WSW,240,11.0,16.0,66,-99.99,,,-99.99,,2013-02-06 00:51:00,
2013-02-05 20:00:00,56.0,48.0,29.95,WSW,240,13.0,15.0,74,-99.99,,,-99.99,,2013-02-06 01:00:00,
2013-02-05 20:21:00,56.0,48.0,29.95,WSW,240,13.0,15.0,74,-99.99,,,-99.99,,2013-02-06 01:21:00,
2013-02-05 20:31:00,56.0,48.0,29.95,WSW,240,13.0,15.0,74,-99.99,,,-99.99,,2013-02-06 01:31:00,
2013-02-05 20:41:00,56.0,48.0,29.95,WSW,240,13.0,15.0,74,-99.99,,,-99.99,,2013-02-06 01:41:00,
2013-02-05 20:52:00,56.0,48.0,29.95,WSW,240,13.0,15.0,74,-99.99,,,-99.99,,2013-02-06 01:52:00,
2013-02-05 21:00:00,56.0,49.0,29.96,WSW,240,13.0,17.0,76,-99.99,,,-99.99,,2013-02-06 02:00:00,
2013-02-05 21:21:00,56.0,49.0,29.96,WSW,240,13.0,17.0,76,-99.99,,,-99.99,,2013-02-06 02:21:00,
2013-02-05 21:31:00,56.0,49.0,29.96,WSW,240,13.0,17.0,76,-99.99,,,-99.99,,2013-02-06 02:31:00,
2013-02-05 21:41:00,56.0,49.0,29.96,WSW,240,13.0,17.0,76,-99.99,,,-99.99,,2013-02-06 02:41:00,
2013-02-05 21:52:00,56.0,49.0,29.96,WSW,240,13.0,17.0,76,-99.99,,,-99.99,,2013-02-06 02:52:00,
2013-02-05 22:00:00,56.0,49.0,29.97,SW,230,11.0,15.0,79,-99.99,,,-99.99,,2013-02-06 03:00:00,
2013-02-05 22:21:00,56.0,49.0,29.97,SW,230,11.0,15.0,79,-99.99,,,-99.99,,2013-02-06 03:21:00,
2013-02-05 22:31:00,56.0,49.0,29.97,SW,230,11.0,15.0,79,-99.99,,,-99.99,,2013-02-06 03:31:00,
2013-02-05 22:41:00,56.0,49.0,29.97,SW,230,11.0,15.0,79,-99.99,,,-99.99,,2013-02-06 03:41:00,
2013-02-05 22:52:00,56.0,49.0,29.97,SW,230,11.0,15.0,79,-99.99,,,-99.99,,2013-02-06 03:52:00,
2013-02-05 23:00:00,55.0,50.0,29.98,SW,230,9.0,10.0,82,-99.99,,,-99.99,,2013-02-06 04:00:00,
2013-02-05 23:21:00,55.0,50.0,29.98,SW,230,9.0,10.0,82,-99.99,,,-99.99,,2013-02-06 04:21:00,
2013-02-05 23:31:00,55.0,50.0,29.98,SW,230,9.0,10.0,82,-99.99,,,-99.99,,2013-02-06 04:31:00,
2013-02-05 23:41:00,55.0,50.0,29.98,SW,230,9.0,10.0,82,-99.99,,,-99.99,,2013-02-06 04:41:00,
2013-02-05 23:51:00,55.0,50.0,29.98,SW,230,9.0,10.0,82,-99.99,,,-99.99,,2013-02-06 04:51:00,